Location: Unspecified
(0.0000°N, 0.0000°E)
Time: 15:03:55
(UTC+00:00)

CZ-3B DEB - Pass Details

Date: 16 February 2026
Orbit: 979 x 42142 km, 20.1° (Epoch: 15 November)

Event Time Altitude Azimuth Distance (km) Brightness Sun altitude
Exits shadow 02:33:34 35° 35° (NE) 3,702 ? -53.3°
Maximum altitude 12:58:06 62° 148° (SSE) 27,025 ? 73.6°
Drops below altitude 10° 14:46:35 10° 96° (E) 8,885 ? 50.3°
Sets 14:50:36 0° 92° (E) 8,755 ? 49.3°
